Astoria, OR

10:34 PM PDT on June 22, 2018 (GMT -0700)
Astoria Regional

Weather History for KAST - August, 2016

Change the Weather History Date:

Friday, August 19, 2016

  Actual Average Record
Temperature  
Mean Temperature 77 °F 61 °F  
Max Temperature 98 °F 69 °F 98 °F (2016)
Min Temperature 55 °F 53 °F 39 °F (1973)
Degree Days  
Heating Degree Days 0 4  
Month to date heating degree days 33 76  
Since 1 June heating degree days 270 468  
Since 1 July heating degree days 94 226  
Cooling Degree Days 12 0  
Month to date cooling degree days 25 0  
Year to date cooling degree days 36 3  
Since 1 June cooling degree days 33 3  
Growing Degree Days 28 (Base 50)    
Moisture  
Dew Point 55 °F    
Average Humidity 59    
Maximum Humidity 93    
Minimum Humidity 25    
Precipitation  
Precipitation 0.00 in 0.04 in 0.79 in (2008)
Month to date precipitation 0.40 0.58  
Year to date precipitation 40.75 37.52  
Sea Level Pressure  
Sea Level Pressure 29.89 in    
Wind  
Wind Speed 7 mph (NE)    
Max Wind Speed 16 mph    
Max Gust Speed 21 mph    
Visibility 10 miles    
Events      
T = Trace of Precipitation, MM = Missing Value Source: NWS Daily Summary

Daily Weather History Graph

Daily Weather History Graph

Search for Another Location

Airport or City:

Astronomy

Aug. 19, 2016 Rise Set
Actual Time 6:20 AM PDT 8:16 PM PDT
Civil Twilight 5:48 AM PDT 8:48 PM PDT
Nautical Twilight 5:08 AM PDT 9:28 PM PDT
Astronomical Twilight 4:24 AM PDT 10:11 PM PDT
Moon 9:06 PM PDT (8/19) 7:50 AM PDT (8/19)
Length of Visible Light 15h 00m
Length of Day
13h 56m
Full, 97% of the Moon is Illuminated
Aug 19
Full
Aug 24
Last Quarter
Sep 1
New
Sep 9
First Quarter
Sep 16
Full

Hourly Weather History & Observations

Time (PDT) Temp. Heat Index Dew Point Humidity Pressure Visibility Wind Dir Wind Speed Gust Speed Precip Events Conditions
12:55 AM 60.1 °F - 55.9 °F 86% 29.89 in 10.0 mi Calm Calm - N/A   Clear
1:55 AM 61.0 °F - 55.9 °F 83% 29.89 in 10.0 mi Calm Calm - N/A   Clear
2:55 AM 60.1 °F - 55.9 °F 86% 29.89 in 10.0 mi Calm Calm - N/A   Clear
3:55 AM 57.9 °F - 55.0 °F 90% 29.88 in 10.0 mi Calm Calm - N/A   Clear
4:55 AM 55.9 °F - 53.1 °F 90% 29.88 in 10.0 mi Calm Calm - N/A   Clear
5:55 AM 57.0 °F - 53.1 °F 87% 29.88 in 10.0 mi Calm Calm - N/A   Clear
6:55 AM 59.0 °F - 54.0 °F 83% 29.90 in 10.0 mi ESE 6.9 mph - N/A   Clear
7:55 AM 70.0 °F - 57.9 °F 65% 29.90 in 10.0 mi ESE 6.9 mph - N/A   Clear
8:55 AM 79.0 °F - 59.0 °F 50% 29.91 in 10.0 mi East 5.8 mph - N/A   Clear
9:55 AM 84.0 °F 83.0 °F 55.9 °F 38% 29.92 in 10.0 mi East 12.7 mph - N/A   Clear
10:55 AM 87.1 °F 85.9 °F 57.0 °F 36% 29.92 in 10.0 mi ENE 10.4 mph - N/A   Clear
11:55 AM 89.1 °F 88.0 °F 57.9 °F 35% 29.91 in 10.0 mi ENE 8.1 mph - N/A   Clear
12:55 PM 91.9 °F 90.6 °F 57.0 °F 31% 29.91 in 10.0 mi NE 11.5 mph - N/A   Clear
1:55 PM 93.9 °F 92.0 °F 55.0 °F 27% 29.90 in 10.0 mi NE 9.2 mph - N/A   Clear
2:55 PM 95.0 °F 93.4 °F 55.9 °F 27% 29.89 in 10.0 mi NE 13.8 mph - N/A   Clear
3:55 PM 97.0 °F 95.0 °F 55.0 °F 24% 29.88 in 10.0 mi NE 11.5 mph - N/A   Clear
4:55 PM 88.0 °F 86.5 °F 55.9 °F 34% 29.87 in 10.0 mi NW 15.0 mph - N/A   Clear
5:55 PM 90.0 °F - 52.0 °F 27% 29.86 in 10.0 mi NW 15.0 mph - N/A   Clear
6:55 PM 86.0 °F - 52.0 °F 31% 29.86 in 10.0 mi NW 13.8 mph - N/A   Clear
7:55 PM 82.0 °F - 51.1 °F 34% 29.86 in 10.0 mi NW 11.5 mph - N/A   Clear
8:55 PM 78.1 °F - 52.0 °F 40% 29.87 in 10.0 mi NNW 4.6 mph - N/A   Clear
9:55 PM 71.1 °F - 54.0 °F 55% 29.88 in 10.0 mi Calm Calm - N/A   Clear
10:55 PM 69.1 °F - 55.0 °F 61% 29.89 in 10.0 mi Calm Calm - N/A   Clear
11:55 PM 66.0 °F - 54.0 °F 65% 29.90 in 10.0 mi Calm Calm - N/A   Clear